Location: ???????
(38.3360°N, 23.6977°E)
Time: 22:51:25
(UTC+00:00)

Cosmos 1943 Rocket - Pass Details

Date: 17 November 2025
Orbit: 812 x 841 km, 71.0° (Epoch: 13 December)

Event Time Altitude Azimuth Distance (km) Brightness Sun altitude
Rises 15:56:41 0° 202° (SSW) 3,373 5.9 -9.2°
Reaches altitude 10° 15:59:07 10° 203° (SSW) 2,439 5.2 -9.6°
Maximum altitude 16:04:43 85° 290° (WNW) 840 2.2 -10.7°
Drops below altitude 10° 16:10:20 10° 21° (NNE) 2,437 4.3 -11.8°
Enters shadow 16:12:45 - 22° (NNE) 3,361 5.0 -12.2°
